Regional Weather Roundup
Issued by NWS Northern Indiana

Home | Current Version | Previous Version | Graphics & Text | Print | Product List | Glossary On
Versions: 1 2 3 4 5 6 7 8 9 10 11 12 13 14 15 16 17 18 19 20 21 22 23 24 25 26 27 28 29 30 31 32 33 34 35 36 37 38 39 40 41 42 43 44 45 46 47 48 49 50
592
ASUS43 KIWX 230010
RWRIWX

KIWX WEATHER ROUNDUP
NATIONAL WEATHER SERVICE NORTHERN INDIANA
800 PM EDT THU JUN 22 2017

NOTE: "FAIR" INDICATES FEW OR NO CLOUDS BELOW 12,000 FEET WITH NO
SIGNIFICANT WEATHER AND/OR OBSTRUCTIONS TO VISIBILITY.

* THESE STATIONS ARE NOT UNDER NWS QUALITY CONTROL. THEY ALSO MAY NOT
  REPORT WEATHER SUCH AS PRECIPITATION OR FOG.

INZ001>027-230100-
NORTHERN INDIANA

CITY           SKY/WX    TMP DP  RH WIND       PRES   REMARKS
GARY*          MOSUNNY   82  70  65 S9        29.74F
VALPARAISO     CLOUDY    80  71  74 S15G24    29.78S
6HR MIN TEMP:  80; 6HR MAX TEMP:  89; 6HR PCP: TRACE;

MICHIGAN CITY* CLOUDY    81  70  69 S8G17     29.76F
LAPORTE*       CLOUDY    80  70  70 SW14      29.78F
6HR MIN TEMP:  80; 6HR MAX TEMP:  86;

KNOX*          CLOUDY    79  59  50 SW16G24   29.79R
SOUTH BEND     CLOUDY    80  70  71 S17G26    29.78S
6HR MIN TEMP:  80; 6HR MAX TEMP:  87; 6HR PCP:  0.02;

ELKHART*       PTSUNNY   79  68  69 S12G23    29.79R
GOSHEN         CLOUDY    80  67  64 SW13      29.80R
6HR MIN TEMP:  80; 6HR MAX TEMP:  86; 6HR PCP: TRACE;

MONTICELLO*    CLOUDY    79  68  69 S13G24    29.80S
6HR MIN TEMP:  78; 6HR MAX TEMP:  85;

LOGANSPORT*    CLOUDY    77  68  73 S13G21    29.83S
ROCHESTER*     MOSUNNY   79  72  78 S12G17    29.82S
WARSAW*        CLOUDY    77  68  73 SW6       29.82R
FORT WAYNE     MOSUNNY   81  66  60 S23G31    29.82F
6HR MIN TEMP:  81; 6HR MAX TEMP:  88; 6HR PCP: TRACE;

PERU/GRISSOM   PTSUNNY   78  69  73 S22       29.81R
6HR MIN TEMP:  77; 6HR MAX TEMP:  85; 6HR PCP: TRACE;


$$
INZ028>050-230100-
CENTRAL INDIANA

CITY           SKY/WX    TMP DP  RH WIND       PRES   REMARKS
LAFAYETTE      CLOUDY    76  69  79 S9G17     29.81S
6HR MIN TEMP:  76; 6HR MAX TEMP:  84; 6HR PCP: TRACE;

KOKOMO*        CLOUDY    78  69  73 S20G28    29.84S
6HR MIN TEMP:  78; 6HR MAX TEMP:  85;

MUNCIE*        CLOUDY    78  68  71 S8G23     29.86F
6HR MIN TEMP:  78; 6HR MAX TEMP:  86;

INDIANAPOLIS   CLOUDY    75  69  81 S18       29.85F
6HR MIN TEMP:  75; 6HR MAX TEMP:  84; 6HR PCP: TRACE;


$$
MIZ043>046-050>051-056>058-064>065-071>073-077>080-230100-
SOUTHWEST LOWER MICHIGAN

CITY           SKY/WX    TMP DP  RH WIND       PRES   REMARKS
BATTLE CREEK   CLOUDY    82  70  66 SW9       29.78S
6HR MIN TEMP:  82; 6HR MAX TEMP:  88;

BENTON HARBOR  MOSUNNY   81  70  69 S9        29.74F
6HR MIN TEMP:  80; 6HR MAX TEMP:  89; 6HR PCP:  0.03;

COLDWATER*     HVY RAIN  78  73  82 SW7       29.80S
6HR MIN TEMP:  77; 6HR MAX TEMP:  85;

HILLSDALE*     MOSUNNY   79  70  73 S5        29.81S
HOLLAND        CLOUDY    80  71  74 SW12      29.75S
6HR MIN TEMP:  80; 6HR MAX TEMP:  86; 6HR PCP: TRACE;

GRAND RAPIDS   CLOUDY    73  72  96 S8        29.76F THUNDER
KALAMAZOO      PTSUNNY   82  67  60 SW16G30   29.77S
6HR MIN TEMP:  82; 6HR MAX TEMP:  88; 6HR PCP: TRACE;

STURGIS*       CLOUDY    80  69  68 SW13G21   29.79R
6HR MIN TEMP:  78; 6HR MAX TEMP:  84;

THREE RIVERS*  LGT RAIN  79  69  71 W6G16     29.79S
6HR MIN TEMP:  79; 6HR MAX TEMP:  86;


$$
OHZ001>008-015>018-024>025-230100-
NORTHWEST OHIO

CITY           SKY/WX    TMP DP  RH WIND       PRES   REMARKS
WAUSEON*       CLOUDY    84  66  54 SW16      29.81R
DEFIANCE       MOSUNNY   81  66  60 S20G33    29.81S
6HR MIN TEMP:  81; 6HR MAX TEMP:  88;

FINDLAY        PTSUNNY   84  65  52 SW24G32   29.83F
6HR MIN TEMP:  83; 6HR MAX TEMP:  91; 6HR PCP: TRACE;

TOLEDO EXPRESS CLOUDY    80  72  76 SW8       29.80S
6HR MIN TEMP:  75; 6HR MAX TEMP:  88; 6HR PCP:  0.15;

TOLEDO METCALF PTSUNNY   83  71  67 SW10      29.82R
6HR MIN TEMP:  71; 6HR MAX TEMP:  90; 6HR PCP:  0.48;

LIMA           CLOUDY    80  68  66 S13G20    29.86F
6HR MIN TEMP:  80; 6HR MAX TEMP:  87;


$$
AND FOR LAKE MICHIGAN COASTAL AND OPEN LAKE BUOY OBSERVATIONS

STATION/POSITION TEMP    WIND        PRES    VSBY  WAVE
                 AIR SEA DIR/SP/G                  HT/PER
                 (F)     (DEG/KT/KT) (MB)    (MI)  (FT/S)
CALUMET HARBOR    81     180/ 10/ 16 1006.3F
MICHIGAN CITY     81     190/ 18/ 21   N/A
BURNS HARBOR      81     200/ 21/ 30 1007.5F
SOUTH LAKE BUOY   66 61  120/  8/ 10 1006.0S         1/ 4
4 MI NW BRIDGMAN  74 69  220/ 10/ 12 1006.8          2/ 3
MICHIGAN CITY     78 68  190/ 16/ 23   N/A           2/ 3

$$
&&




USA.gov is the U.S. government's official web portal to all federal, state and local government web resources and services.